{"data":{"norad_id":54190,"epoch":"2026-09-20T07:28:40.498176Z","epoch_age_seconds":105586,"freshness":"FRESH","line1":"1 54190U 22141AK  26263.31157984  .00000910  00000+0  38075-4 0  9992","line2":"2 54190  53.1599 190.3392 0001194  92.8499 267.2640 15.34388810215518","mean_motion":15.3438881,"eccentricity":0.0001194,"inclination_deg":53.1599,"raan_deg":190.3392,"arg_perigee_deg":92.8499,"mean_anomaly_deg":267.264,"bstar":3.8075e-5,"rev_number":21551,"period_min":93.848442494833,"perigee_km":461.91969915158,"apogee_km":463.55329974325,"semimajor_km":6840.8734994474,"source":"CELESTRAK","updated_at":"2026-09-21T09:00:33.094512Z"}}